Time,TemperatureF,DewpointF,PressureIn,WindDirection,WindDirectionDegrees,WindSpeedMPH,WindSpeedGustMPH,Humidity,HourlyPrecipIn,Conditions,Clouds,dailyrainin,SolarRadiationWatts/m^2,SoftwareType,DateUTC
2013-04-11 00:00:00,76.3,70.8,29.99,ESE,109,2.0,15.0,83,0.00,,SCT016,0.01,77.00,VWS V14.01,2013-04-11 04:00:00,
2013-04-11 00:05:00,76.2,71.0,29.99,ESE,107,6.0,14.0,84,0.00,,SCT016,0.00,77.00,VWS V14.01,2013-04-11 04:05:00,
2013-04-11 00:10:00,76.2,71.0,29.99,ESE,106,7.0,11.0,84,0.00,,SCT016,0.00,77.00,VWS V14.01,2013-04-11 04:10:00,
2013-04-11 00:15:00,76.1,70.6,29.99,SSE,155,6.0,15.0,83,0.00,,SCT016,0.00,77.00,VWS V14.01,2013-04-11 04:15:00,
2013-04-11 00:20:00,76.1,70.6,29.99,SE,133,3.0,13.0,83,0.00,,SCT016,0.00,77.00,VWS V14.01,2013-04-11 04:20:00,
2013-04-11 00:25:00,76.1,70.6,29.99,ENE,71,5.0,11.0,83,0.00,,SCT016,0.00,77.00,VWS V14.01,2013-04-11 04:25:00,
2013-04-11 00:30:00,76.0,70.5,29.99,SE,125,4.0,8.0,83,0.00,,SCT016,0.00,77.00,VWS V14.01,2013-04-11 04:30:00,
2013-04-11 00:35:00,75.9,70.4,29.98,ESE,105,7.0,12.0,83,0.00,,SCT016,0.00,77.00,VWS V14.01,2013-04-11 04:35:00,
2013-04-11 00:40:00,75.9,70.4,29.98,ESE,107,2.0,10.0,83,0.00,,SCT016,0.00,77.00,VWS V14.01,2013-04-11 04:40:00,
2013-04-11 00:45:00,75.9,70.4,29.98,ESE,119,5.0,12.0,83,0.00,,SCT016,0.00,77.00,VWS V14.01,2013-04-11 04:45:00,
2013-04-11 00:50:00,75.9,70.4,29.98,ESE,115,7.0,7.0,83,0.00,,SCT016,0.00,77.00,VWS V14.01,2013-04-11 04:50:00,
2013-04-11 00:55:00,75.9,70.4,29.98,ESE,110,6.0,14.0,83,0.00,,SCT016,0.00,77.00,VWS V14.01,2013-04-11 04:55:00,
2013-04-11 01:00:00,75.9,70.4,29.98,East,97,5.0,13.0,83,0.00,,SCT016,0.00,77.00,VWS V14.01,2013-04-11 05:00:00,
2013-04-11 01:05:00,75.9,70.4,29.98,ESE,116,10.0,15.0,83,0.00,,SCT016,0.00,77.00,VWS V14.01,2013-04-11 05:05:00,
2013-04-11 01:10:00,75.9,70.4,29.98,SE,130,10.0,13.0,83,0.00,,SCT016,0.00,77.00,VWS V14.01,2013-04-11 05:10:00,
2013-04-11 01:15:00,75.9,70.4,29.98,SE,132,6.0,12.0,83,0.00,,SCT016,0.00,77.00,VWS V14.01,2013-04-11 05:15:00,
2013-04-11 01:20:00,75.9,70.4,29.97,SE,133,8.0,12.0,83,0.00,,SCT016,0.00,77.00,VWS V14.01,2013-04-11 05:20:00,
2013-04-11 01:25:00,75.9,70.7,29.97,ESE,119,5.0,15.0,84,0.00,,SCT016,0.00,77.00,VWS V14.01,2013-04-11 05:25:00,
2013-04-11 01:30:00,75.9,70.7,29.97,ESE,113,5.0,11.0,84,0.00,,SCT016,0.00,77.00,VWS V14.01,2013-04-11 05:30:00,
2013-04-11 01:35:00,75.9,70.7,29.97,SE,128,4.0,10.0,84,0.00,,SCT016,0.00,77.00,VWS V14.01,2013-04-11 05:35:00,
2013-04-11 01:40:00,75.8,70.6,29.96,ESE,112,9.0,15.0,84,0.00,,SCT016,0.00,77.00,VWS V14.01,2013-04-11 05:40:00,
2013-04-11 01:45:00,75.8,70.6,29.96,SE,124,9.0,11.0,84,0.00,,SCT016,0.00,77.00,VWS V14.01,2013-04-11 05:45:00,
2013-04-11 01:50:00,75.8,71.0,29.96,ESE,108,3.0,16.0,85,0.00,,SCT016,0.00,77.00,VWS V14.01,2013-04-11 05:50:00,
2013-04-11 01:55:00,75.7,70.9,29.95,ESE,111,4.0,15.0,85,0.00,,SCT016,0.00,77.00,VWS V14.01,2013-04-11 05:55:00,
2013-04-11 02:00:00,75.7,70.9,29.95,East,92,3.0,14.0,85,0.00,,SCT016,0.00,77.00,VWS V14.01,2013-04-11 06:00:00,
2013-04-11 02:05:00,75.6,70.8,29.95,East,97,7.0,12.0,85,0.00,,SCT016,0.00,77.00,VWS V14.01,2013-04-11 06:05:00,
2013-04-11 02:10:00,75.6,70.8,29.95,ESE,114,5.0,13.0,85,0.00,,SCT016,0.00,77.00,VWS V14.01,2013-04-11 06:10:00,
2013-04-11 02:15:00,75.6,70.8,29.95,SE,145,11.0,11.0,85,0.00,,SCT016,0.00,77.00,VWS V14.01,2013-04-11 06:15:00,
2013-04-11 02:20:00,75.5,70.7,29.94,SE,138,7.0,12.0,85,0.00,,SCT016,0.00,77.00,VWS V14.01,2013-04-11 06:20:00,
2013-04-11 02:25:00,75.5,70.7,29.94,East,96,5.0,11.0,85,0.00,,SCT016,0.00,77.00,VWS V14.01,2013-04-11 06:25:00,
2013-04-11 02:30:00,75.5,70.7,29.94,ESE,107,10.0,12.0,85,0.00,,SCT016,0.00,77.00,VWS V14.01,2013-04-11 06:30:00,
2013-04-11 02:35:00,75.5,70.7,29.94,SE,138,6.0,8.0,85,0.00,,SCT016,0.00,77.00,VWS V14.01,2013-04-11 06:35:00,
2013-04-11 02:40:00,75.5,70.7,29.94,ESE,108,7.0,9.0,85,0.00,,SCT016,0.00,77.00,VWS V14.01,2013-04-11 06:40:00,
2013-04-11 02:45:00,75.5,71.0,29.94,SE,128,5.0,13.0,86,0.00,,SCT016,0.00,77.00,VWS V14.01,2013-04-11 06:45:00,
2013-04-11 02:50:00,75.4,70.9,29.94,ESE,117,7.0,13.0,86,0.00,,SCT016,0.00,77.00,VWS V14.01,2013-04-11 06:50:00,
2013-04-11 02:55:00,75.3,70.8,29.94,ESE,115,6.0,14.0,86,0.00,,SCT016,0.00,77.00,VWS V14.01,2013-04-11 06:55:00,
2013-04-11 03:00:00,75.3,70.8,29.93,SE,135,4.0,9.0,86,0.00,,SCT016,0.00,77.00,VWS V14.01,2013-04-11 07:00:00,
2013-04-11 03:05:00,75.2,70.7,29.93,SE,136,5.0,12.0,86,0.00,,SCT016,0.00,77.00,VWS V14.01,2013-04-11 07:05:00,
2013-04-11 03:10:00,75.1,70.6,29.93,ESE,115,5.0,9.0,86,0.00,,SCT016,0.00,77.00,VWS V14.01,2013-04-11 07:10:00,
2013-04-11 03:15:00,75.1,70.6,29.93,SE,138,6.0,9.0,86,0.00,,SCT016,0.00,77.00,VWS V14.01,2013-04-11 07:15:00,
2013-04-11 03:20:00,75.0,70.5,29.93,East,86,3.0,11.0,86,0.00,,SCT016,0.00,77.00,VWS V14.01,2013-04-11 07:20:00,
2013-04-11 03:25:00,75.0,70.5,29.93,SE,128,3.0,6.0,86,0.00,,SCT016,0.00,77.00,VWS V14.01,2013-04-11 07:25:00,
2013-04-11 03:30:00,75.0,70.5,29.93,SE,135,4.0,9.0,86,0.00,,SCT016,0.00,77.00,VWS V14.01,2013-04-11 07:30:00,
2013-04-11 03:35:00,74.9,70.4,29.93,SE,126,1.0,4.0,86,0.00,,SCT016,0.00,77.00,VWS V14.01,2013-04-11 07:35:00,
2013-04-11 03:40:00,75.0,70.5,29.93,SE,146,5.0,7.0,86,0.00,,SCT016,0.00,77.00,VWS V14.01,2013-04-11 07:40:00,
2013-04-11 03:45:00,75.0,70.5,29.93,ESE,121,1.0,12.0,86,0.00,,SCT016,0.00,77.00,VWS V14.01,2013-04-11 07:45:00,
2013-04-11 03:50:00,75.0,70.5,29.92,ESE,121,4.0,12.0,86,0.00,,SCT016,0.00,77.00,VWS V14.01,2013-04-11 07:50:00,
2013-04-11 03:55:00,75.1,70.6,29.92,East,101,8.0,11.0,86,0.00,,SCT016,0.00,77.00,VWS V14.01,2013-04-11 07:55:00,
2013-04-11 04:00:00,75.1,70.3,29.92,SE,130,6.0,13.0,85,0.00,,SCT016,0.00,77.00,VWS V14.01,2013-04-11 08:00:00,
2013-04-11 04:05:00,75.2,70.4,29.92,SE,137,10.0,16.0,85,0.00,,SCT016,0.00,77.00,VWS V14.01,2013-04-11 08:05:00,
2013-04-11 04:10:00,75.2,70.4,29.92,ESE,107,7.0,11.0,85,0.00,,SCT016,0.00,77.00,VWS V14.01,2013-04-11 08:10:00,
2013-04-11 04:15:00,75.2,70.4,29.92,SSE,153,3.0,13.0,85,0.00,,SCT016,0.00,77.00,VWS V14.01,2013-04-11 08:15:00,
2013-04-11 04:20:00,75.1,70.3,29.92,ESE,107,2.0,6.0,85,0.00,,SCT016,0.00,77.00,VWS V14.01,2013-04-11 08:20:00,
2013-04-11 04:25:00,75.1,70.3,29.92,ESE,117,6.0,11.0,85,0.00,,SCT016,0.00,77.00,VWS V14.01,2013-04-11 08:25:00,
2013-04-11 04:30:00,75.1,70.3,29.92,SE,129,5.0,8.0,85,0.00,,SCT016,0.00,77.00,VWS V14.01,2013-04-11 08:30:00,
2013-04-11 04:35:00,75.1,70.3,29.92,ESE,102,3.0,14.0,85,0.00,,SCT016,0.00,77.00,VWS V14.01,2013-04-11 08:35:00,
2013-04-11 04:40:00,75.1,70.3,29.92,SE,135,8.0,12.0,85,0.00,,SCT016,0.00,77.00,VWS V14.01,2013-04-11 08:40:00,
2013-04-11 04:45:00,75.2,70.4,29.92,ESE,103,6.0,19.0,85,0.00,,SCT016,0.00,77.00,VWS V14.01,2013-04-11 08:45:00,
2013-04-11 04:50:00,75.3,70.5,29.93,ESE,116,4.0,8.0,85,0.00,,SCT016,0.00,77.00,VWS V14.01,2013-04-11 08:50:00,
2013-04-11 04:55:00,75.3,70.5,29.92,ESE,111,3.0,11.0,85,0.00,,SCT016,0.00,77.00,VWS V14.01,2013-04-11 08:55:00,
2013-04-11 05:00:00,75.3,70.5,29.92,SE,132,10.0,13.0,85,0.00,,SCT016,0.00,77.00,VWS V14.01,2013-04-11 09:00:00,
2013-04-11 05:05:00,75.3,70.5,29.92,SSE,163,6.0,12.0,85,0.00,,SCT016,0.00,77.00,VWS V14.01,2013-04-11 09:05:00,
2013-04-11 05:10:00,75.4,70.6,29.92,SSE,165,4.0,7.0,85,0.00,,SCT016,0.00,77.00,VWS V14.01,2013-04-11 09:10:00,
2013-04-11 05:15:00,75.4,70.6,29.92,SE,146,3.0,10.0,85,0.00,,SCT016,0.00,76.00,VWS V14.01,2013-04-11 09:15:00,
2013-04-11 05:20:00,75.3,70.5,29.92,SE,136,2.0,9.0,85,0.00,,SCT016,0.00,77.00,VWS V14.01,2013-04-11 09:20:00,
2013-04-11 05:25:00,75.3,70.5,29.92,SE,125,2.0,10.0,85,0.00,,SCT016,0.00,77.00,VWS V14.01,2013-04-11 09:25:00,
2013-04-11 05:30:00,75.3,70.5,29.92,SE,127,4.0,8.0,85,0.00,,SCT016,0.00,77.00,VWS V14.01,2013-04-11 09:30:00,
2013-04-11 05:35:00,75.3,70.5,29.92,SE,138,6.0,10.0,85,0.00,,SCT016,0.00,77.00,VWS V14.01,2013-04-11 09:35:00,
2013-04-11 05:40:00,75.3,70.5,29.92,SE,142,4.0,14.0,85,0.00,,SCT016,0.00,77.00,VWS V14.01,2013-04-11 09:40:00,
2013-04-11 05:45:00,75.2,70.4,29.92,SE,133,6.0,13.0,85,0.00,,SCT016,0.00,77.00,VWS V14.01,2013-04-11 09:45:00,
2013-04-11 05:50:00,75.2,70.4,29.92,ESE,105,10.0,10.0,85,0.00,,SCT016,0.00,77.00,VWS V14.01,2013-04-11 09:50:00,
2013-04-11 05:55:00,75.2,70.4,29.92,SE,125,4.0,11.0,85,0.00,,SCT016,0.00,77.00,VWS V14.01,2013-04-11 09:55:00,
2013-04-11 06:00:00,75.2,70.4,29.92,East,98,12.0,12.0,85,0.00,,SCT016,0.00,76.00,VWS V14.01,2013-04-11 10:00:00,
2013-04-11 06:05:00,75.2,70.4,29.92,SSE,157,4.0,13.0,85,0.00,,SCT016,0.00,77.00,VWS V14.01,2013-04-11 10:05:00,
2013-04-11 06:10:00,75.2,70.4,29.92,SE,142,3.0,15.0,85,0.00,,SCT016,0.00,77.00,VWS V14.01,2013-04-11 10:10:00,
2013-04-11 06:15:00,75.2,70.4,29.92,East,98,3.0,7.0,85,0.00,,SCT016,0.00,77.00,VWS V14.01,2013-04-11 10:15:00,
2013-04-11 06:20:00,75.2,70.4,29.93,SE,126,4.0,9.0,85,0.00,,SCT016,0.00,77.00,VWS V14.01,2013-04-11 10:20:00,
2013-04-11 06:25:00,75.2,70.4,29.93,SE,142,2.0,5.0,85,0.00,,SCT016,0.00,77.00,VWS V14.01,2013-04-11 10:25:00,
2013-04-11 06:30:00,75.2,70.4,29.93,SE,139,9.0,13.0,85,0.00,,SCT016,0.00,76.00,VWS V14.01,2013-04-11 10:30:00,
2013-04-11 06:35:00,75.3,70.5,29.93,SE,127,6.0,13.0,85,0.00,,SCT016,0.00,77.00,VWS V14.01,2013-04-11 10:35:00,
2013-04-11 06:40:00,75.3,70.1,29.93,SE,139,5.0,10.0,84,0.00,,SCT016,0.00,76.00,VWS V14.01,2013-04-11 10:40:00,
2013-04-11 06:45:00,75.4,70.2,29.93,ESE,110,3.0,9.0,84,0.00,,SCT016,0.00,76.00,VWS V14.01,2013-04-11 10:45:00,
2013-04-11 06:50:00,75.4,70.6,29.93,ESE,118,3.0,13.0,85,0.00,,SCT016,0.00,77.00,VWS V14.01,2013-04-11 10:50:00,
2013-04-11 06:55:00,75.4,70.6,29.94,ESE,119,5.0,16.0,85,0.00,,SCT016,0.00,77.00,VWS V14.01,2013-04-11 10:55:00,
2013-04-11 07:00:00,75.4,70.6,29.94,SE,126,10.0,10.0,85,0.00,,SCT016,0.00,77.00,VWS V14.01,2013-04-11 11:00:00,
2013-04-11 07:05:00,75.5,70.3,29.94,ESE,113,2.0,11.0,84,0.00,,SCT016,0.00,81.00,VWS V14.01,2013-04-11 11:05:00,
2013-04-11 07:10:00,75.5,70.3,29.94,ESE,119,3.0,10.0,84,0.00,,SCT016,0.00,83.00,VWS V14.01,2013-04-11 11:10:00,
2013-04-11 07:15:00,75.5,70.3,29.95,ESE,111,11.0,12.0,84,0.00,,SCT016,0.00,86.00,VWS V14.01,2013-04-11 11:15:00,
2013-04-11 07:20:00,75.5,70.3,29.94,East,96,4.0,12.0,84,0.00,,SCT016,0.00,91.00,VWS V14.01,2013-04-11 11:20:00,
2013-04-11 07:25:00,75.6,70.4,29.95,SE,126,5.0,6.0,84,0.00,,SCT016,0.00,93.00,VWS V14.01,2013-04-11 11:25:00,
2013-04-11 07:30:00,75.6,70.4,29.95,ESE,119,7.0,9.0,84,0.00,,SCT016,0.00,97.00,VWS V14.01,2013-04-11 11:30:00,
2013-04-11 07:35:00,75.7,70.5,29.95,SE,128,6.0,11.0,84,0.00,,SCT016,0.00,100.00,VWS V14.01,2013-04-11 11:35:00,
2013-04-11 07:40:00,75.7,70.5,29.95,ESE,121,3.0,15.0,84,0.00,,SCT016,0.00,114.00,VWS V14.01,2013-04-11 11:40:00,
2013-04-11 07:45:00,75.8,70.6,29.95,East,97,8.0,16.0,84,0.00,,SCT016,0.00,139.00,VWS V14.01,2013-04-11 11:45:00,
2013-04-11 07:50:00,75.8,70.6,29.95,East,101,7.0,12.0,84,0.00,,SCT016,0.00,114.00,VWS V14.01,2013-04-11 11:50:00,
2013-04-11 07:55:00,75.8,70.6,29.96,ESE,121,14.0,14.0,84,0.00,,SCT016,0.00,121.00,VWS V14.01,2013-04-11 11:55:00,
2013-04-11 08:00:00,75.7,70.5,29.95,SE,128,4.0,11.0,84,0.00,,SCT016,0.00,137.00,VWS V14.01,2013-04-11 12:00:00,
2013-04-11 08:05:00,75.6,70.8,29.95,SE,132,2.0,9.0,85,0.00,,SCT016,0.00,123.00,VWS V14.01,2013-04-11 12:05:00,
2013-04-11 08:10:00,75.7,70.9,29.96,ESE,121,13.0,13.0,85,0.00,,SCT016,0.00,165.00,VWS V14.01,2013-04-11 12:10:00,
2013-04-11 08:15:00,75.7,70.9,29.96,East,97,3.0,12.0,85,0.00,,BKN030,0.00,190.00,VWS V14.01,2013-04-11 12:15:00,
2013-04-11 08:20:00,75.9,71.1,29.96,ESE,123,5.0,14.0,85,0.00,,BKN030,0.00,207.00,VWS V14.01,2013-04-11 12:20:00,
2013-04-11 08:25:00,75.9,70.7,29.96,East,100,3.0,7.0,84,0.00,,BKN030,0.00,186.00,VWS V14.01,2013-04-11 12:25:00,
2013-04-11 08:30:00,76.0,70.8,29.96,East,91,6.0,14.0,84,0.00,,BKN030,0.00,179.00,VWS V14.01,2013-04-11 12:30:00,
2013-04-11 08:35:00,76.2,70.7,29.96,ENE,70,4.0,17.0,83,0.00,,BKN030,0.00,209.00,VWS V14.01,2013-04-11 12:35:00,
2013-04-11 08:40:00,76.4,70.9,29.96,ESE,110,6.0,14.0,83,0.00,,BKN030,0.00,204.00,VWS V14.01,2013-04-11 12:40:00,
2013-04-11 08:45:00,76.5,71.0,29.97,SE,129,8.0,13.0,83,0.00,,BKN030,0.00,206.00,VWS V14.01,2013-04-11 12:45:00,
2013-04-11 08:50:00,76.6,70.7,29.96,SE,138,13.0,17.0,82,0.00,,BKN030,0.00,179.00,VWS V14.01,2013-04-11 12:50:00,
2013-04-11 08:55:00,76.7,70.8,29.97,ESE,115,7.0,10.0,82,0.00,,BKN030,0.00,172.00,VWS V14.01,2013-04-11 12:55:00,
2013-04-11 09:00:00,76.8,70.9,29.97,ESE,104,11.0,16.0,82,0.00,,BKN030,0.00,213.00,VWS V14.01,2013-04-11 13:00:00,
2013-04-11 09:05:00,76.9,71.0,29.97,SE,143,10.0,17.0,82,0.00,,BKN030,0.00,190.00,VWS V14.01,2013-04-11 13:05:00,
2013-04-11 09:10:00,77.0,71.1,29.97,SE,130,11.0,11.0,82,0.00,,BKN030,0.00,267.00,VWS V14.01,2013-04-11 13:10:00,
2013-04-11 09:15:00,77.1,71.2,29.97,ESE,103,8.0,12.0,82,0.00,,BKN030,0.00,236.00,VWS V14.01,2013-04-11 13:15:00,
2013-04-11 09:20:00,77.4,71.5,29.97,ESE,123,7.0,12.0,82,0.00,,BKN030,0.00,592.00,VWS V14.01,2013-04-11 13:20:00,
2013-04-11 09:25:00,77.6,71.3,29.97,SSW,211,13.0,15.0,81,0.00,,BKN030,0.00,202.00,VWS V14.01,2013-04-11 13:25:00,
2013-04-11 09:30:00,77.6,70.9,29.97,SE,143,7.0,15.0,80,0.00,,BKN030,0.00,591.00,VWS V14.01,2013-04-11 13:30:00,
2013-04-11 09:35:00,78.0,71.0,29.97,ESE,107,9.0,16.0,79,0.00,,BKN030,0.00,589.00,VWS V14.01,2013-04-11 13:35:00,
2013-04-11 09:40:00,78.3,71.3,29.97,SE,144,12.0,15.0,79,0.00,,BKN030,0.00,267.00,VWS V14.01,2013-04-11 13:40:00,
2013-04-11 09:45:00,78.6,71.2,29.97,SSE,148,13.0,16.0,78,0.00,,BKN030,0.00,355.00,VWS V14.01,2013-04-11 13:45:00,
2013-04-11 09:50:00,79.2,71.4,29.97,ESE,118,5.0,15.0,77,0.00,,BKN030,0.00,742.00,VWS V14.01,2013-04-11 13:50:00,
2013-04-11 09:55:00,79.4,71.2,29.97,ESE,109,13.0,18.0,76,0.00,,BKN030,0.00,455.00,VWS V14.01,2013-04-11 13:55:00,
2013-04-11 10:00:00,79.3,71.1,29.97,SE,129,14.0,18.0,76,0.00,,BKN030,0.00,717.00,VWS V14.01,2013-04-11 14:00:00,
2013-04-11 10:05:00,79.3,71.1,29.97,SSE,151,16.0,16.0,76,0.00,,BKN030,0.00,262.00,VWS V14.01,2013-04-11 14:05:00,
2013-04-11 10:10:00,79.2,71.4,29.98,SSE,149,4.0,12.0,77,0.00,,BKN030,0.00,271.00,VWS V14.01,2013-04-11 14:10:00,
2013-04-11 10:15:00,79.6,71.8,29.98,ESE,113,7.0,19.0,77,0.00,,BKN019,0.00,793.00,VWS V14.01,2013-04-11 14:15:00,
2013-04-11 10:20:00,79.7,71.1,29.98,East,100,6.0,17.0,75,0.00,,BKN019,0.00,425.00,VWS V14.01,2013-04-11 14:20:00,
2013-04-11 10:25:00,79.4,71.2,29.98,SE,127,10.0,20.0,76,0.00,,BKN019,0.00,350.00,VWS V14.01,2013-04-11 14:25:00,
2013-04-11 10:30:00,79.2,71.0,29.98,SE,142,4.0,18.0,76,0.00,,BKN019,0.00,322.00,VWS V14.01,2013-04-11 14:30:00,
2013-04-11 10:35:00,79.2,71.4,29.98,ESE,118,11.0,13.0,77,0.00,,BKN019,0.00,353.00,VWS V14.01,2013-04-11 14:35:00,
2013-04-11 10:40:00,79.6,71.8,29.98,SSE,160,10.0,16.0,77,0.00,,BKN019,0.00,738.00,VWS V14.01,2013-04-11 14:40:00,
2013-04-11 10:45:00,80.0,71.8,29.98,ESE,121,6.0,14.0,76,0.00,,BKN019,0.00,362.00,VWS V14.01,2013-04-11 14:45:00,
2013-04-11 10:50:00,80.2,71.6,29.98,SSE,161,12.0,19.0,75,0.00,,BKN019,0.00,390.00,VWS V14.01,2013-04-11 14:50:00,
2013-04-11 10:55:00,80.7,71.7,29.98,SSE,152,7.0,13.0,74,0.00,,BKN019,0.00,946.00,VWS V14.01,2013-04-11 14:55:00,
2013-04-11 11:00:00,81.0,71.5,29.98,ESE,104,7.0,12.0,73,0.00,,BKN019,0.00,925.00,VWS V14.01,2013-04-11 15:00:00,
2013-04-11 11:05:00,81.1,71.2,29.98,SE,142,9.0,15.0,72,0.00,,BKN019,0.00,721.00,VWS V14.01,2013-04-11 15:05:00,
2013-04-11 11:10:00,81.1,71.2,29.98,ESE,105,12.0,15.0,72,0.00,,BKN019,0.00,359.00,VWS V14.01,2013-04-11 15:10:00,
2013-04-11 11:15:00,80.7,71.2,29.99,SE,140,12.0,18.0,73,0.00,,BKN019,0.00,415.00,VWS V14.01,2013-04-11 15:15:00,
2013-04-11 11:20:00,80.8,71.7,29.99,SE,144,11.0,15.0,74,0.00,,BKN019,0.00,926.00,VWS V14.01,2013-04-11 15:20:00,
2013-04-11 11:25:00,80.6,71.2,29.99,South,170,12.0,16.0,73,0.00,,BKN019,0.00,297.00,VWS V14.01,2013-04-11 15:25:00,
2013-04-11 11:30:00,80.7,71.2,29.98,South,171,10.0,15.0,73,0.00,,BKN019,0.00,316.00,VWS V14.01,2013-04-11 15:30:00,
2013-04-11 11:35:00,81.4,71.5,29.98,ESE,114,3.0,17.0,72,0.00,,BKN019,0.00,353.00,VWS V14.01,2013-04-11 15:35:00,
2013-04-11 11:40:00,81.1,71.2,29.98,ESE,119,19.0,19.0,72,0.00,,BKN019,0.00,336.00,VWS V14.01,2013-04-11 15:40:00,
2013-04-11 11:45:00,80.8,71.3,29.98,SSE,159,7.0,19.0,73,0.00,,BKN019,0.00,369.00,VWS V14.01,2013-04-11 15:45:00,
2013-04-11 11:50:00,81.1,71.2,29.98,SE,139,12.0,21.0,72,0.00,,BKN019,0.00,355.00,VWS V14.01,2013-04-11 15:50:00,
2013-04-11 11:55:00,80.9,71.0,29.98,ESE,121,10.0,20.0,72,0.00,,BKN019,0.00,299.00,VWS V14.01,2013-04-11 15:55:00,
2013-04-11 12:00:00,81.0,71.5,29.97,ESE,123,15.0,15.0,73,0.00,,BKN019,0.00,1020.00,VWS V14.01,2013-04-11 16:00:00,
2013-04-11 12:05:00,81.2,71.7,29.97,SSE,165,4.0,15.0,73,0.00,,SCT019,0.00,1062.00,VWS V14.01,2013-04-11 16:05:00,
2013-04-11 12:10:00,81.0,71.1,29.97,ESE,112,13.0,19.0,72,0.01,,SCT019,0.01,376.00,VWS V14.01,2013-04-11 16:10:00,
2013-04-11 12:15:00,81.3,71.4,29.97,SSE,156,10.0,18.0,72,0.01,,SCT019,0.01,1067.00,VWS V14.01,2013-04-11 16:15:00,
2013-04-11 12:20:00,81.9,71.6,29.97,SSE,156,20.0,21.0,71,0.01,,SCT019,0.01,1067.00,VWS V14.01,2013-04-11 16:20:00,
2013-04-11 12:25:00,81.9,71.6,29.97,SE,139,12.0,18.0,71,0.01,,SCT019,0.01,700.00,VWS V14.01,2013-04-11 16:25:00,
2013-04-11 12:30:00,82.3,72.0,29.97,SE,132,7.0,19.0,71,0.01,,SCT019,0.01,508.00,VWS V14.01,2013-04-11 16:30:00,
2013-04-11 12:35:00,82.9,72.1,29.97,ESE,116,10.0,16.0,70,0.01,,SCT019,0.01,1129.00,VWS V14.01,2013-04-11 16:35:00,
2013-04-11 12:40:00,83.4,72.2,29.97,SE,129,13.0,15.0,69,0.01,,SCT019,0.01,1058.00,VWS V14.01,2013-04-11 16:40:00,
2013-04-11 12:45:00,83.4,72.2,29.97,SE,133,9.0,20.0,69,0.01,,SCT019,0.01,461.00,VWS V14.01,2013-04-11 16:45:00,
2013-04-11 12:50:00,82.9,71.7,29.97,SE,132,3.0,16.0,69,0.01,,SCT019,0.01,1067.00,VWS V14.01,2013-04-11 16:50:00,
2013-04-11 12:55:00,83.3,72.5,29.97,SE,146,6.0,14.0,70,0.01,,SCT019,0.01,1160.00,VWS V14.01,2013-04-11 16:55:00,
2013-04-11 13:00:00,83.8,72.1,29.97,SE,134,15.0,16.0,68,0.01,,SCT019,0.01,1132.00,VWS V14.01,2013-04-11 17:00:00,
2013-04-11 13:05:00,83.7,71.6,29.96,ESE,115,13.0,19.0,67,0.01,,SCT020,0.01,448.00,VWS V14.01,2013-04-11 17:05:00,
2013-04-11 13:10:00,83.1,71.4,29.96,SE,145,8.0,16.0,68,0.00,,SCT020,0.01,448.00,VWS V14.01,2013-04-11 17:10:00,
2013-04-11 13:15:00,82.9,71.7,29.96,ESE,121,11.0,17.0,69,0.00,,SCT020,0.01,448.00,VWS V14.01,2013-04-11 17:15:00,
2013-04-11 13:20:00,83.4,71.7,29.96,ESE,123,12.0,17.0,68,0.00,,SCT020,0.01,1118.00,VWS V14.01,2013-04-11 17:20:00,
2013-04-11 13:25:00,83.8,72.1,29.95,ESE,103,12.0,19.0,68,0.00,,SCT020,0.01,353.00,VWS V14.01,2013-04-11 17:25:00,
2013-04-11 13:30:00,83.6,71.9,29.95,SE,130,7.0,14.0,68,0.00,,SCT020,0.01,1130.00,VWS V14.01,2013-04-11 17:30:00,
2013-04-11 13:35:00,83.8,72.6,29.95,SE,144,14.0,20.0,69,0.00,,SCT020,0.01,912.00,VWS V14.01,2013-04-11 17:35:00,
2013-04-11 13:40:00,83.8,71.7,29.95,SE,126,8.0,19.0,67,0.00,,SCT020,0.01,383.00,VWS V14.01,2013-04-11 17:40:00,
2013-04-11 13:45:00,83.3,71.6,29.94,SE,129,18.0,20.0,68,0.00,,SCT020,0.01,638.00,VWS V14.01,2013-04-11 17:45:00,
2013-04-11 13:50:00,83.0,72.2,29.94,SE,132,13.0,13.0,70,0.00,,SCT020,0.01,1099.00,VWS V14.01,2013-04-11 17:50:00,
2013-04-11 13:55:00,83.0,71.8,29.94,SE,138,14.0,14.0,69,0.00,,SCT020,0.01,1076.00,VWS V14.01,2013-04-11 17:55:00,
2013-04-11 14:00:00,82.9,71.7,29.94,SSE,150,6.0,15.0,69,0.00,,SCT020,0.01,308.00,VWS V14.01,2013-04-11 18:00:00,
2013-04-11 14:05:00,83.1,72.3,29.94,SE,137,7.0,16.0,70,0.00,,SCT020,0.01,1049.00,VWS V14.01,2013-04-11 18:05:00,
2013-04-11 14:10:00,83.0,71.8,29.93,SSE,150,9.0,14.0,69,0.00,,SCT020,0.01,413.00,VWS V14.01,2013-04-11 18:10:00,
2013-04-11 14:15:00,82.7,71.5,29.93,East,84,12.0,19.0,69,0.00,,SCT020,0.01,436.00,VWS V14.01,2013-04-11 18:15:00,
2013-04-11 14:20:00,83.1,72.3,29.93,East,90,5.0,15.0,70,0.00,,SCT020,0.01,436.00,VWS V14.01,2013-04-11 18:20:00,
2013-04-11 14:25:00,82.9,72.1,29.93,SE,126,12.0,17.0,70,0.00,,SCT020,0.01,1016.00,VWS V14.01,2013-04-11 18:25:00,
2013-04-11 14:30:00,83.3,72.1,29.92,SE,140,7.0,15.0,69,0.00,,SCT020,0.01,1051.00,VWS V14.01,2013-04-11 18:30:00,
2013-04-11 14:35:00,83.5,71.8,29.92,ESE,123,11.0,15.0,68,0.00,,SCT020,0.01,1007.00,VWS V14.01,2013-04-11 18:35:00,
2013-04-11 14:40:00,84.0,72.7,29.92,SE,131,12.0,20.0,69,0.00,,SCT020,0.01,1004.00,VWS V14.01,2013-04-11 18:40:00,
2013-04-11 14:45:00,84.1,72.4,29.92,East,90,2.0,16.0,68,0.00,,SCT020,0.01,986.00,VWS V14.01,2013-04-11 18:45:00,
2013-04-11 14:50:00,83.8,72.1,29.92,ESE,116,12.0,19.0,68,0.00,,SCT020,0.01,1046.00,VWS V14.01,2013-04-11 18:50:00,
2013-04-11 14:55:00,83.2,72.0,29.92,SE,139,6.0,18.0,69,0.00,,SCT020,0.01,997.00,VWS V14.01,2013-04-11 18:55:00,
2013-04-11 15:00:00,82.9,71.7,29.92,SE,142,12.0,24.0,69,0.00,,SCT020,0.01,984.00,VWS V14.01,2013-04-11 19:00:00,
2013-04-11 15:05:00,83.0,72.2,29.91,SSE,156,14.0,14.0,70,0.00,,SCT020,0.01,970.00,VWS V14.01,2013-04-11 19:05:00,
2013-04-11 15:10:00,83.4,72.2,29.91,SE,131,10.0,13.0,69,0.00,,SCT020,0.01,970.00,VWS V14.01,2013-04-11 19:10:00,
2013-04-11 15:15:00,83.3,72.1,29.91,SSE,161,13.0,14.0,69,0.00,,SCT020,0.01,390.00,VWS V14.01,2013-04-11 19:15:00,
2013-04-11 15:20:00,82.5,71.7,29.91,ESE,121,7.0,17.0,70,0.00,,SCT020,0.01,350.00,VWS V14.01,2013-04-11 19:20:00,
2013-04-11 15:25:00,82.0,71.7,29.91,SE,130,4.0,16.0,71,0.00,,SCT020,0.01,1081.00,VWS V14.01,2013-04-11 19:25:00,
2013-04-11 15:30:00,82.1,71.8,29.91,East,92,14.0,18.0,71,0.00,,SCT020,0.01,381.00,VWS V14.01,2013-04-11 19:30:00,
2013-04-11 15:35:00,82.0,72.1,29.90,East,88,9.0,12.0,72,0.00,,SCT020,0.01,339.00,VWS V14.01,2013-04-11 19:35:00,
2013-04-11 15:40:00,82.2,72.3,29.90,SE,146,9.0,16.0,72,0.00,,SCT020,0.01,468.00,VWS V14.01,2013-04-11 19:40:00,
2013-04-11 15:45:00,82.4,72.5,29.90,SE,138,6.0,16.0,72,0.00,,SCT020,0.01,279.00,VWS V14.01,2013-04-11 19:45:00,
2013-04-11 15:50:00,82.5,72.2,29.90,East,84,7.0,20.0,71,0.00,,SCT020,0.01,429.00,VWS V14.01,2013-04-11 19:50:00,
2013-04-11 15:55:00,82.3,72.0,29.90,ESE,103,5.0,19.0,71,0.00,,SCT020,0.01,902.00,VWS V14.01,2013-04-11 19:55:00,
2013-04-11 16:00:00,82.2,71.9,29.90,East,88,4.0,18.0,71,0.00,,SCT020,0.01,362.00,VWS V14.01,2013-04-11 20:00:00,
2013-04-11 16:05:00,81.9,72.0,29.90,ESE,121,7.0,18.0,72,0.00,,SCT020,0.01,816.00,VWS V14.01,2013-04-11 20:05:00,
2013-04-11 16:10:00,82.1,72.2,29.90,SSE,160,13.0,23.0,72,0.00,,SCT020,0.01,795.00,VWS V14.01,2013-04-11 20:10:00,
2013-04-11 16:15:00,82.5,72.2,29.89,East,96,12.0,20.0,71,0.00,,SCT020,0.01,904.00,VWS V14.01,2013-04-11 20:15:00,
2013-04-11 16:20:00,82.2,71.9,29.89,East,98,4.0,15.0,71,0.00,,SCT020,0.01,313.00,VWS V14.01,2013-04-11 20:20:00,
2013-04-11 16:25:00,82.3,72.0,29.88,SE,144,10.0,12.0,71,0.00,,SCT020,0.01,645.00,VWS V14.01,2013-04-11 20:25:00,
2013-04-11 16:30:00,81.9,72.0,29.88,ESE,107,5.0,13.0,72,0.00,,SCT020,0.01,299.00,VWS V14.01,2013-04-11 20:30:00,
2013-04-11 16:35:00,82.3,72.4,29.88,SSE,147,13.0,15.0,72,0.00,,SCT020,0.01,563.00,VWS V14.01,2013-04-11 20:35:00,
2013-04-11 16:40:00,82.4,72.1,29.88,SE,137,12.0,14.0,71,0.00,,SCT020,0.01,352.00,VWS V14.01,2013-04-11 20:40:00,
2013-04-11 16:45:00,82.3,72.0,29.88,SE,146,12.0,15.0,71,0.00,,SCT020,0.01,431.00,VWS V14.01,2013-04-11 20:45:00,
2013-04-11 16:50:00,82.0,72.1,29.88,ESE,118,9.0,15.0,72,0.00,,SCT020,0.01,283.00,VWS V14.01,2013-04-11 20:50:00,
2013-04-11 16:55:00,81.5,71.6,29.88,SE,128,4.0,18.0,72,0.00,,SCT020,0.01,325.00,VWS V14.01,2013-04-11 20:55:00,
2013-04-11 17:00:00,81.0,71.5,29.88,SE,142,10.0,20.0,73,0.00,,SCT020,0.01,350.00,VWS V14.01,2013-04-11 21:00:00,
2013-04-11 17:05:00,80.8,71.7,29.88,ESE,109,13.0,15.0,74,0.00,,BKN030,0.01,334.00,VWS V14.01,2013-04-11 21:05:00,
2013-04-11 17:10:00,80.7,71.7,29.88,ESE,115,5.0,18.0,74,0.00,,BKN030,0.01,434.00,VWS V14.01,2013-04-11 21:10:00,
2013-04-11 17:15:00,80.7,72.0,29.88,SE,142,11.0,11.0,75,0.00,,BKN030,0.01,364.00,VWS V14.01,2013-04-11 21:15:00,
2013-04-11 17:20:00,80.7,71.7,29.88,South,169,6.0,15.0,74,0.00,,BKN030,0.01,301.00,VWS V14.01,2013-04-11 21:20:00,
2013-04-11 17:25:00,80.7,71.7,29.88,ESE,115,11.0,17.0,74,0.00,,BKN030,0.01,285.00,VWS V14.01,2013-04-11 21:25:00,
2013-04-11 17:30:00,80.8,71.7,29.88,SSE,160,7.0,13.0,74,0.00,,BKN030,0.01,287.00,VWS V14.01,2013-04-11 21:30:00,
2013-04-11 17:35:00,80.8,71.7,29.88,SE,144,13.0,15.0,74,0.00,,BKN030,0.01,251.00,VWS V14.01,2013-04-11 21:35:00,
2013-04-11 17:40:00,80.6,71.6,29.88,SE,131,11.0,17.0,74,0.00,,BKN030,0.01,236.00,VWS V14.01,2013-04-11 21:40:00,
2013-04-11 17:45:00,80.6,71.6,29.88,SE,138,4.0,13.0,74,0.00,,BKN030,0.01,200.00,VWS V14.01,2013-04-11 21:45:00,
2013-04-11 17:50:00,80.6,71.9,29.88,SSE,163,12.0,13.0,75,0.00,,BKN030,0.01,214.00,VWS V14.01,2013-04-11 21:50:00,
2013-04-11 17:55:00,80.5,72.2,29.88,SE,126,3.0,10.0,76,0.00,,BKN060,0.01,202.00,VWS V14.01,2013-04-11 21:55:00,
2013-04-11 18:00:00,80.3,71.7,29.88,ESE,123,11.0,16.0,75,0.00,,BKN060,0.01,232.00,VWS V14.01,2013-04-11 22:00:00,
2013-04-11 18:05:00,80.0,71.8,29.88,SSE,151,9.0,16.0,76,0.00,,BKN060,0.01,195.00,VWS V14.01,2013-04-11 22:05:00,
2013-04-11 18:10:00,79.9,72.1,29.88,SE,138,7.0,12.0,77,0.00,,BKN060,0.01,160.00,VWS V14.01,2013-04-11 22:10:00,
2013-04-11 18:15:00,79.7,71.9,29.88,SE,131,4.0,17.0,77,0.00,,BKN060,0.01,171.00,VWS V14.01,2013-04-11 22:15:00,
2013-04-11 18:20:00,79.6,71.8,29.88,SE,124,12.0,16.0,77,0.00,,BKN060,0.01,192.00,VWS V14.01,2013-04-11 22:20:00,
2013-04-11 18:25:00,79.6,72.1,29.88,ESE,123,7.0,12.0,78,0.00,,BKN060,0.01,185.00,VWS V14.01,2013-04-11 22:25:00,
2013-04-11 18:30:00,79.5,72.0,29.88,ESE,119,11.0,13.0,78,0.00,,BKN060,0.01,188.00,VWS V14.01,2013-04-11 22:30:00,
2013-04-11 18:35:00,79.4,71.9,29.87,ESE,117,11.0,14.0,78,0.00,,BKN060,0.01,237.00,VWS V14.01,2013-04-11 22:35:00,
2013-04-11 18:40:00,79.3,72.2,29.87,SE,126,13.0,13.0,79,0.00,,BKN060,0.01,167.00,VWS V14.01,2013-04-11 22:40:00,
2013-04-11 18:45:00,79.3,72.2,29.87,SE,125,10.0,14.0,79,0.00,,BKN060,0.01,174.00,VWS V14.01,2013-04-11 22:45:00,
2013-04-11 18:50:00,79.2,72.1,29.88,SE,132,8.0,13.0,79,0.00,,BKN060,0.01,155.00,VWS V14.01,2013-04-11 22:50:00,
2013-04-11 18:55:00,79.0,71.9,29.87,East,98,5.0,11.0,79,0.00,,BKN060,0.01,155.00,VWS V14.01,2013-04-11 22:55:00,
2013-04-11 19:00:00,78.9,71.8,29.87,SSE,155,10.0,14.0,79,0.00,,BKN045,0.01,141.00,VWS V14.01,2013-04-11 23:00:00,
2013-04-11 19:05:00,78.8,72.1,29.88,SE,128,14.0,17.0,80,0.00,,BKN045,0.01,128.00,VWS V14.01,2013-04-11 23:05:00,
2013-04-11 19:10:00,78.7,72.0,29.88,SE,146,12.0,19.0,80,0.00,,BKN045,0.01,105.00,VWS V14.01,2013-04-11 23:10:00,
2013-04-11 19:15:00,78.6,71.9,29.87,SE,136,7.0,14.0,80,0.00,,BKN045,0.01,98.00,VWS V14.01,2013-04-11 23:15:00,
2013-04-11 19:20:00,78.5,71.8,29.87,ESE,118,8.0,13.0,80,0.00,,BKN045,0.01,97.00,VWS V14.01,2013-04-11 23:20:00,
2013-04-11 19:25:00,78.4,72.1,29.87,ESE,111,10.0,19.0,81,0.00,,BKN045,0.01,91.00,VWS V14.01,2013-04-11 23:25:00,
2013-04-11 19:30:00,78.3,72.0,29.87,East,92,3.0,11.0,81,0.00,,BKN045,0.01,86.00,VWS V14.01,2013-04-11 23:30:00,
2013-04-11 19:35:00,78.3,72.0,29.87,SE,140,5.0,12.0,81,0.00,,BKN045,0.01,83.00,VWS V14.01,2013-04-11 23:35:00,
2013-04-11 19:40:00,78.2,72.3,29.87,SE,126,10.0,14.0,82,0.00,,BKN045,0.01,81.00,VWS V14.01,2013-04-11 23:40:00,
2013-04-11 19:45:00,78.1,72.2,29.87,ESE,119,10.0,12.0,82,0.00,,BKN045,0.01,77.00,VWS V14.01,2013-04-11 23:45:00,
2013-04-11 19:50:00,78.0,72.1,29.87,SE,130,4.0,13.0,82,0.00,,BKN045,0.01,77.00,VWS V14.01,2013-04-11 23:50:00,
2013-04-11 19:55:00,78.0,72.1,29.87,SE,134,2.0,7.0,82,0.00,,BKN045,0.01,76.00,VWS V14.01,2013-04-11 23:55:00,
2013-04-11 20:00:00,77.9,72.0,29.87,ESE,107,11.0,12.0,82,0.00,,BKN045,0.01,76.00,VWS V14.01,2013-04-12 00:00:00,
2013-04-11 20:05:00,77.8,72.2,29.87,SE,138,4.0,13.0,83,0.00,,BKN050,0.01,76.00,VWS V14.01,2013-04-12 00:05:00,
2013-04-11 20:10:00,77.8,72.2,29.87,SE,125,6.0,10.0,83,0.00,,BKN050,0.01,76.00,VWS V14.01,2013-04-12 00:10:00,
2013-04-11 20:15:00,77.7,72.1,29.87,SE,134,4.0,8.0,83,0.00,,BKN050,0.01,76.00,VWS V14.01,2013-04-12 00:15:00,
2013-04-11 20:20:00,77.6,72.4,29.87,SSE,153,5.0,11.0,84,0.00,,BKN050,0.01,76.00,VWS V14.01,2013-04-12 00:20:00,
2013-04-11 20:25:00,77.6,72.4,29.87,SE,133,12.0,12.0,84,0.00,,BKN050,0.01,76.00,VWS V14.01,2013-04-12 00:25:00,
2013-04-11 20:30:00,77.5,72.3,29.87,SE,142,10.0,13.0,84,0.00,,BKN050,0.01,76.00,VWS V14.01,2013-04-12 00:30:00,
2013-04-11 20:35:00,77.4,72.2,29.87,ESE,116,4.0,12.0,84,0.00,,BKN050,0.01,76.00,VWS V14.01,2013-04-12 00:35:00,
2013-04-11 20:40:00,77.4,72.5,29.87,East,83,4.0,10.0,85,0.00,,BKN050,0.01,76.00,VWS V14.01,2013-04-12 00:40:00,
2013-04-11 20:45:00,77.3,72.4,29.87,SSE,148,5.0,10.0,85,0.00,,BKN050,0.01,76.00,VWS V14.01,2013-04-12 00:45:00,
2013-04-11 20:50:00,77.3,72.4,29.87,East,101,2.0,10.0,85,0.00,,BKN050,0.01,76.00,VWS V14.01,2013-04-12 00:50:00,
2013-04-11 20:55:00,77.3,72.4,29.88,ENE,75,2.0,10.0,85,0.00,,BKN050,0.01,76.00,VWS V14.01,2013-04-12 00:55:00,
2013-04-11 21:00:00,77.2,72.3,29.88,SE,134,2.0,14.0,85,0.00,,BKN050,0.01,76.00,VWS V14.01,2013-04-12 01:00:00,
2013-04-11 21:05:00,77.2,72.3,29.88,SE,129,6.0,7.0,85,0.00,,SCT030,0.01,76.00,VWS V14.01,2013-04-12 01:05:00,
2013-04-11 21:10:00,77.2,72.3,29.88,ESE,107,9.0,12.0,85,0.00,,SCT030,0.01,76.00,VWS V14.01,2013-04-12 01:10:00,
2013-04-11 21:15:00,77.2,72.3,29.88,ESE,115,2.0,12.0,85,0.00,,SCT030,0.01,76.00,VWS V14.01,2013-04-12 01:15:00,
2013-04-11 21:20:00,77.2,72.3,29.88,ESE,113,12.0,13.0,85,0.00,,SCT030,0.01,76.00,VWS V14.01,2013-04-12 01:20:00,
2013-04-11 21:25:00,77.2,72.3,29.88,SE,125,3.0,10.0,85,0.00,,SCT030,0.01,76.00,VWS V14.01,2013-04-12 01:25:00,
2013-04-11 21:30:00,77.2,72.3,29.88,SE,132,5.0,11.0,85,0.00,,SCT030,0.01,76.00,VWS V14.01,2013-04-12 01:30:00,
2013-04-11 21:35:00,77.2,72.3,29.88,SE,138,5.0,15.0,85,0.00,,SCT030,0.01,76.00,VWS V14.01,2013-04-12 01:35:00,
2013-04-11 21:40:00,77.2,72.3,29.88,ESE,105,5.0,12.0,85,0.00,,SCT030,0.01,76.00,VWS V14.01,2013-04-12 01:40:00,
2013-04-11 21:45:00,77.2,72.3,29.89,ESE,121,9.0,10.0,85,0.00,,SCT030,0.01,76.00,VWS V14.01,2013-04-12 01:45:00,
2013-04-11 21:50:00,77.2,72.3,29.89,SE,131,4.0,11.0,85,0.00,,SCT030,0.01,76.00,VWS V14.01,2013-04-12 01:50:00,
2013-04-11 21:55:00,77.3,72.4,29.89,ESE,109,4.0,10.0,85,0.00,,SCT030,0.01,76.00,VWS V14.01,2013-04-12 01:55:00,
2013-04-11 22:00:00,77.3,72.4,29.89,ESE,122,1.0,11.0,85,0.00,,SCT030,0.01,76.00,VWS V14.01,2013-04-12 02:00:00,
2013-04-11 22:05:00,77.3,72.8,29.89,ESE,106,4.0,11.0,86,0.00,,SCT040,0.01,76.00,VWS V14.01,2013-04-12 02:05:00,
2013-04-11 22:10:00,77.3,72.8,29.89,SE,128,4.0,8.0,86,0.00,,SCT040,0.01,76.00,VWS V14.01,2013-04-12 02:10:00,
2013-04-11 22:15:00,77.3,72.8,29.89,SE,134,3.0,6.0,86,0.00,,SCT040,0.01,76.00,VWS V14.01,2013-04-12 02:15:00,
2013-04-11 22:20:00,77.3,72.8,29.89,SE,144,3.0,5.0,86,0.00,,SCT040,0.01,76.00,VWS V14.01,2013-04-12 02:20:00,
2013-04-11 22:25:00,77.2,72.7,29.89,SE,126,3.0,9.0,86,0.00,,SCT040,0.01,76.00,VWS V14.01,2013-04-12 02:25:00,
2013-04-11 22:30:00,77.2,72.7,29.89,SE,146,6.0,10.0,86,0.00,,SCT040,0.01,76.00,VWS V14.01,2013-04-12 02:30:00,
2013-04-11 22:35:00,77.1,72.6,29.88,ESE,109,5.0,13.0,86,0.00,,SCT040,0.01,76.00,VWS V14.01,2013-04-12 02:35:00,
2013-04-11 22:40:00,77.2,72.7,29.88,SE,135,4.0,9.0,86,0.00,,SCT040,0.01,76.00,VWS V14.01,2013-04-12 02:40:00,
2013-04-11 22:45:00,77.2,72.7,29.88,ESE,123,6.0,10.0,86,0.00,,SCT040,0.01,76.00,VWS V14.01,2013-04-12 02:45:00,
2013-04-11 22:50:00,77.2,72.7,29.88,ESE,106,2.0,8.0,86,0.00,,SCT040,0.01,76.00,VWS V14.01,2013-04-12 02:50:00,
2013-04-11 22:55:00,77.2,72.7,29.88,SE,140,6.0,9.0,86,0.00,,SCT040,0.01,76.00,VWS V14.01,2013-04-12 02:55:00,
2013-04-11 23:00:00,77.2,73.0,29.88,SE,129,13.0,14.0,87,0.00,,SCT040,0.01,76.00,VWS V14.01,2013-04-12 03:00:00,
2013-04-11 23:05:00,77.2,73.0,29.88,SE,136,6.0,13.0,87,0.00,,SCT040,0.01,76.00,VWS V14.01,2013-04-12 03:05:00,
2013-04-11 23:10:00,77.2,73.0,29.88,ESE,119,7.0,16.0,87,0.00,,SCT040,0.01,76.00,VWS V14.01,2013-04-12 03:10:00,
2013-04-11 23:15:00,77.2,73.0,29.88,SE,143,5.0,15.0,87,0.00,,SCT040,0.01,76.00,VWS V14.01,2013-04-12 03:15:00,
2013-04-11 23:20:00,77.2,73.0,29.88,SE,141,6.0,13.0,87,0.00,,SCT040,0.01,76.00,VWS V14.01,2013-04-12 03:20:00,
2013-04-11 23:25:00,77.2,73.0,29.88,SE,129,9.0,11.0,87,0.00,,SCT040,0.01,76.00,VWS V14.01,2013-04-12 03:25:00,
2013-04-11 23:30:00,77.2,73.0,29.88,SE,127,4.0,12.0,87,0.00,,SCT040,0.01,76.00,VWS V14.01,2013-04-12 03:30:00,
2013-04-11 23:35:00,77.2,73.0,29.88,SE,138,7.0,13.0,87,0.00,,SCT040,0.01,76.00,VWS V14.01,2013-04-12 03:35:00,
2013-04-11 23:40:00,77.1,72.9,29.88,SE,136,6.0,13.0,87,0.00,,SCT040,0.01,76.00,VWS V14.01,2013-04-12 03:40:00,
2013-04-11 23:45:00,77.1,72.9,29.88,SE,132,4.0,13.0,87,0.00,,SCT040,0.01,76.00,VWS V14.01,2013-04-12 03:45:00,
2013-04-11 23:50:00,77.1,72.9,29.87,SE,144,4.0,9.0,87,0.00,,SCT040,0.01,76.00,VWS V14.01,2013-04-12 03:50:00,
2013-04-11 23:55:00,77.0,72.8,29.87,SSE,148,11.0,17.0,87,0.00,,SCT040,0.01,76.00,VWS V14.01,2013-04-12 03:55:00,